METEREN Weather Reports


time (UTC)temp
C
wind
direction
speed
KPH
gust
KPH
rain 1hr
cm
rain 24hr
cm
rain mn
cm
humidity
%
barometer
mb
20260503021606 13 277 3.2 9.7 0.00 1.07 0.33 96 1010.5
20260503020058 13 360 6.4 9.7 0.00 1.07 0.33 96 1010.6
20260503014605 13 282 3.2 8.0 0.00 1.07 0.33 96 1010.7
20260503013055 13 264 6.4 9.7 0.00 1.07 0.33 96 1010.8
20260503011559 13 275 8.0 14.5 0.05 1.07 0.33 96 1010.8
20260503010106 13 360 9.7 14.5 0.10 1.07 0.33 96 1011.0
20260503004551 13 360 8.0 14.5 0.25 1.07 0.33 95 1011.0
20260503003059 13 360 4.8 11.3 0.25 1.07 0.33 96 1011.0
20260503001547 13 360 4.8 11.3 0.20 1.02 0.28 95 1011.3
20260503000053 13 360 4.8 11.3 0.23 0.97 0.23 95 1011.9
20260502234545 13 360 1.6 9.7 0.08 0.81 0.08 95 1011.9
20260502233044 13 360 6.4 14.5 0.08 0.81 0.08 95 1011.5
20260502231541 13 360 4.8 14.5 0.10 0.81 0.08 95 1011.9
20260502230038 13 360 8.0 12.9 0.13 0.71 0.00 95 1012.1
20260502224537 13 360 4.8 11.3 0.36 0.71 0.71 94 1012.7
20260502223037 13 360 4.8 11.3 0.71 0.71 0.71 94 1012.8
20260502221535 14 360 8.0 17.7 0.71 0.71 0.71 94 1012.9
20260502220037 14 360 6.4 16.1 0.58 0.58 0.58 92 1013.2
20260502214535 14 360 12.9 29.0 0.36 0.36 0.36 89 1013.9
20260502213041 16 360 9.7 43.5 0.00 0.00 0.00 81 1014.0
20260502211531 17 360 1.6 4.8 0.00 0.00 0.00 72 1012.8
20260502210028 17 360 4.8 9.7 0.00 0.00 0.00 71 1012.1
20260502204528 17 360 0.0 14.5 0.00 0.00 0.00 71 1012.3
20260502203027 18 360 6.4 9.7 0.00 0.00 0.00 70 1012.2
20260502201528 18 360 8.0 16.1 0.00 0.00 0.00 68 1013.0
20260502200024 19 360 9.7 19.3 0.00 0.00 0.00 68 1012.6
20260502194523 19 360 4.8 11.3 0.00 0.00 0.00 68 1012.8
20260502193024 20 360 3.2 9.7 0.00 0.00 0.00 67 1012.8
20260502191524 20 360 1.6 8.0 0.00 0.00 0.00 66 1012.9
20260502190024 20 360 1.6 8.0 0.00 0.00 0.00 65 1012.9
20260502184525 21 360 1.6 9.7 0.00 0.00 0.00 64 1012.8
20260502183021 21 360 1.6 11.3 0.00 0.00 0.00 63 1013.0
20260502181520 22 168 6.4 12.9 0.00 0.00 0.00 61 1012.9
20260502163016 23 117 3.2 12.9 0.00 0.00 0.00 59 1013.5
20260502161510 24 83 0.0 11.3 0.00 0.00 0.00 58 1013.7
20260502151501 23 64 0.0 6.4 0.00 0.00 0.00 60 1014.6
20260502123044 22 31 6.4 17.7 0.00 0.00 0.00 62 1016.2
20260502121541 22 301 9.7 17.7 0.00 0.00 0.00 64 1016.4
20260502114541 21 86 11.3 20.9 0.00 0.00 0.00 64 1016.6
20260502113039 21 22 6.4 19.3 0.00 0.00 0.00 64 1016.6
20260502111536 22 107 4.8 14.5 0.00 0.00 0.00 62 1016.9
20260502110033 21 93 1.6 16.1 0.00 0.00 0.00 63 1016.8
20260502104535 21 34 4.8 12.9 0.00 0.00 0.00 64 1017.0
20260502103028 20 360 6.4 11.3 0.00 0.00 0.00 66 1017.1
20260502101534 20 28 3.2 14.5 0.00 0.00 0.00 66 1017.3
20260502091521 20 59 1.6 12.9 0.00 0.00 0.00 67 1017.6
20260502070057 13 360 1.6 11.3 0.00 0.00 0.00 66 1017.8
20260502064601 13 360 6.4 11.3 0.00 0.00 0.00 65 1017.8
20260502063054 13 360 1.6 8.0 0.00 0.00 0.00 63 1017.6
20260502061553 13 360 1.6 4.8 0.00 0.00 0.00 63 1017.8
20260502060152 13 360 4.8 11.3 0.00 0.00 0.00 62 1017.8
20260502054557 12 360 3.2 8.0 0.00 0.00 0.00 67 1017.8
20260502053050 11 360 0.0 6.4 0.00 0.00 0.00 71 1017.6
20260502051548 11 360 1.6 6.4 0.00 0.00 0.00 71 1017.6
20260502050047 11 360 1.6 6.4 0.00 0.00 0.00 71 1017.4
20260502044544 10 360 0.0 0.0 0.00 0.00 0.00 71 1017.3
20260502043046 10 360 3.2 6.4 0.00 0.00 0.00 70 1017.5
20260502041538 10 360 4.8 9.7 0.00 0.00 0.00 70 1017.4
20260502040048 10 360 1.6 4.8 0.00 0.00 0.00 69 1017.4
20260502034535 10 360 1.6 3.2 0.00 0.00 0.00 71 1017.7
20260502033033 11 360 1.6 6.4 0.00 0.00 0.00 69 1017.8
20260502031531 11 360 1.6 6.4 0.00 0.00 0.00 68 1017.8
20260502030031 11 360 1.6 4.8 0.00 0.00 0.00 69 1017.7
20260502024530 11 360 0.0 3.2 0.00 0.00 0.00 67 1017.9
20260502023027 11 360 1.6 4.8 0.00 0.00 0.00 68 1018.1